Bennington, VT

5:31 AM EST on December 16, 2019 (GMT -0500)
Morse State

Weather History for KDDH - September, 2019

Change the Weather History Date:

Sunday, September 1, 2019

  Actual Average Record
Temperature  
Mean Temperature 59 °F 64 °F  
Max Temperature 72 °F 75 °F 91 °F (2010)
Min Temperature 46 °F 52 °F 38 °F (2017)
Degree Days  
Heating Degree Days 6 3  
Month to date heating degree days 6 3  
Since 1 July heating degree days 41 75  
Cooling Degree Days 0 2  
Month to date cooling degree days 0 2  
Year to date cooling degree days 351 290  
Growing Degree Days 8 (Base 50)    
Moisture  
Dew Point 51 °F    
Average Humidity 70    
Maximum Humidity 93    
Minimum Humidity 47    
Precipitation  
Precipitation 0.00 in 0.10 in 0.60 in (2001)
Month to date precipitation 0.00 0.10  
Year to date precipitation 27.47 27.64  
Sea Level Pressure  
Sea Level Pressure 30.32 in    
Wind  
Wind Speed 4 mph (SSE)    
Max Wind Speed 12 mph    
Max Gust Speed 20 mph    
Visibility 10 miles    
Events      
T = Trace of Precipitation, MM = Missing Value Source: NWS Daily Summary

Daily Weather History Graph

Daily Weather History Graph

Search for Another Location

Airport or City:

Astronomy

Sep. 01, 2019 Rise Set
Actual Time 6:17 AM EDT 7:28 PM EDT
Civil Twilight 5:48 AM EDT 7:57 PM EDT
Nautical Twilight 5:13 AM EDT 8:31 PM EDT
Astronomical Twilight 4:36 AM EDT 9:08 PM EDT
Moon 8:46 AM EDT (9/1) 9:10 PM EDT (9/1)
Length of Visible Light 14h 09m
Length of Day
13h 10m
Waxing Crescent, 8% of the Moon is Illuminated
Sep 1
Waxing Crescent
Sep 5
First Quarter
Sep 14
Full
Sep 21
Last Quarter
Sep 28
New

Hourly Weather History & Observations

Time (EDT) Temp. Dew Point Humidity Pressure Visibility Wind Dir Wind Speed Gust Speed Precip Events Conditions
12:54 AM 50.0 °F 48.0 °F 93% 30.34 in 10.0 mi Calm Calm - N/A   Clear
1:54 AM 50.0 °F 48.0 °F 93% 30.34 in 10.0 mi Calm Calm - N/A   Clear
2:54 AM 48.0 °F 46.0 °F 93% 30.35 in 10.0 mi SSE 3.5 mph - N/A   Clear
3:54 AM 48.0 °F 45.0 °F 89% 30.35 in 10.0 mi Calm Calm - N/A   Clear
4:54 AM 48.0 °F 46.0 °F 93% 30.35 in 10.0 mi Calm Calm - N/A   Clear
5:54 AM 48.0 °F 45.0 °F 89% 30.37 in 10.0 mi Calm Calm - N/A   Clear
6:54 AM 46.9 °F 45.0 °F 93% 30.38 in 10.0 mi SSE 4.6 mph - N/A   Clear
7:54 AM 54.0 °F 50.0 °F 86% 30.39 in 10.0 mi Calm Calm - N/A   Clear
8:54 AM 63.0 °F 50.0 °F 63% 30.38 in 10.0 mi East 4.6 mph - N/A   Clear
9:54 AM 66.9 °F 50.0 °F 54% 30.38 in 10.0 mi Variable 3.5 mph - N/A   Clear
10:54 AM 69.1 °F 50.0 °F 51% 30.37 in 10.0 mi SSE 6.9 mph - N/A   Clear
11:54 AM 69.1 °F 48.9 °F 49% 30.36 in 10.0 mi SSE 8.1 mph - N/A   Overcast
12:54 PM 70.0 °F 50.0 °F 49% 30.35 in 10.0 mi East 6.9 mph - N/A   Mostly Cloudy
1:54 PM 71.1 °F 52.0 °F 51% 30.34 in 10.0 mi South 6.9 mph - N/A   Mostly Cloudy
2:54 PM 70.0 °F 53.1 °F 55% 30.32 in 10.0 mi SE 6.9 mph - N/A   Mostly Cloudy
3:54 PM 71.1 °F 53.1 °F 53% 30.30 in 10.0 mi SSE 6.9 mph - N/A   Partly Cloudy
4:54 PM 69.1 °F 53.1 °F 57% 30.29 in 10.0 mi SSE 5.8 mph - N/A   Overcast
5:54 PM 70.0 °F 54.0 °F 57% 30.28 in 10.0 mi South 5.8 mph - N/A   Partly Cloudy
6:54 PM 69.1 °F 54.0 °F 58% 30.27 in 10.0 mi South 6.9 mph - N/A   Mostly Cloudy
7:54 PM 66.9 °F 54.0 °F 63% 30.25 in 10.0 mi Variable 4.6 mph - N/A   Mostly Cloudy
8:54 PM 66.9 °F 54.0 °F 63% 30.24 in 10.0 mi SSE 6.9 mph - N/A   Mostly Cloudy
9:54 PM 66.9 °F 54.0 °F 63% 30.22 in 10.0 mi South 4.6 mph - N/A   Overcast
10:54 PM 66.9 °F 54.0 °F 63% 30.22 in 10.0 mi Variable 3.5 mph - N/A   Overcast
11:54 PM 66.0 °F 55.0 °F 68% 30.20 in 10.0 mi Variable 3.5 mph - N/A   Overcast